User: anonymous   Login
Location: Unspecified
(0.0000°N, 0.0000°E)
Time: 23:16:13
(UTC+00:00)
Language:

STARLINK-36093 - Orbit

View from above orbital plane
View from above orbital plane
View from above satellite
View from above satellite

Ground track
Ground track

The orbit is defined by the following mean orbital elements,

1 67015U          26145.56488076 +.00000000 +00000-0 +17757-3 0 00004
2 67015  70.0011 260.5978 0003326 270.2449  89.8329 14.98334958    02
Epoch (UTC): 25 May 2026 13:33:25
Eccentricity: 0.0003326
inclination: 70.0011°
perigee height: 570 km
apogee height: 574 km
right ascension of ascending node: 260.5978°
argument of perigee: 270.2449°
revolutions per day: 14.98334958
mean anomaly at epoch: 89.8329°

The dashed part of the orbit path shows where the satellite is in the earth's shadow,  

DLR